Location: Unspecified
(0.0000°N, 0.0000°E)
Time: 00:55:34
(UTC+01:00)

SJ-6B - Visible Passes

Search period start: 25 March 2017 00:00
Search period end: 04 April 2017 01:00
Orbit: 511 x 585 km, 97.8° (Epoch: 23 March)

Date Brightness Start Highest point End Pass type
(mag) Time Alt. Az. Time Alt. Az. Time Alt. Az.
25 Mar 4.1 19:36:33 10° SE 19:39:17 19° E 19:41:58 10° NNE visible
25 Mar 6.0 21:12:08 10° SW 21:13:41 12° WSW 21:15:15 10° WNW visible
26 Mar 4.3 20:32:03 10° ESE 20:34:25 16° E 20:36:44 10° NE visible
26 Mar 5.8 22:06:41 10° SW 22:08:49 15° WSW 22:10:56 10° WNW visible
27 Mar 4.5 20:27:41 10° ESE 20:29:32 13° E 20:31:21 10° NE visible
27 Mar 5.5 22:01:25 10° SW 22:03:58 17° WSW 22:06:28 10° WNW visible
28 Mar 5.3 21:56:14 10° SSW 21:59:05 20° WSW 22:01:54 10° NW visible
29 Mar 5.0 21:51:07 10° SSW 21:54:13 24° WSW 21:57:16 10° NW visible
30 Mar 4.6 21:46:03 10° SSW 21:49:21 29° WSW 21:52:35 10° NW visible
31 Mar 4.3 21:41:02 10° SSW 21:44:28 34° WSW 21:47:52 10° NW visible
01 Apr 3.9 21:36:02 10° S 21:39:36 41° WSW 21:43:07 10° NNW visible
02 Apr 3.5 21:31:04 10° S 21:34:43 51° WSW 21:38:19 10° NNW visible
03 Apr 3.1 21:26:08 10° S 21:29:50 63° W 21:33:30 10° NNW visible
